AAN113 LUKK-LIRQ

Flight info

Callsign AAN113
Flight time N/A
Altitude 25000
Route NUNTA DCT MAVIT DCT SOMUN DCT SONIK DCT SUKOM Q125 OKMAP
Aircraft SF50/L-SDGRWY/L

Departure

Time 2026-05-09 17:18
Airport Chişinău International Airport (LUKK)

Arrival

Time N/A
Airport Florence Airport, Peretola (LIRQ)
Time Latitude Longitude Altitude Speed Heading
2026-05-09 17:09 46.93357 28.93726 325 ft 0 kts
2026-05-09 17:13 46.93366 28.93722 325 ft 4 kts 297°
2026-05-09 17:14 46.93388 28.93657 325 ft 10 kts 296°
2026-05-09 17:14 46.93416 28.93540 329 ft 11 kts 276°
2026-05-09 17:14 46.93388 28.93478 331 ft 11 kts 180°
2026-05-09 17:14 46.93288 28.93466 330 ft 18 kts 188°
2026-05-09 17:15 46.93150 28.93438 332 ft 20 kts 189°
2026-05-09 17:15 46.93135 28.93535 330 ft 17 kts 80°
2026-05-09 17:15 46.93121 28.93763 324 ft 28 kts 96°
2026-05-09 17:15 46.93093 28.94103 316 ft 39 kts 98°
2026-05-09 17:16 46.93054 28.94518 306 ft 42 kts 97°
2026-05-09 17:17 46.92815 28.94910 297 ft 35 kts 268°
2026-05-09 17:18 46.92803 28.94289 311 ft 86 kts 268°
2026-05-09 17:18 46.92771 28.93305 522 ft 104 kts 266°
2026-05-09 17:18 46.92812 28.92195 852 ft 111 kts 277°
2026-05-09 17:18 46.92901 28.91072 1172 ft 118 kts 260°
2026-05-09 17:19 46.92771 28.89778 1327 ft 141 kts 261°
2026-05-09 17:19 46.92691 28.88179 1526 ft 171 kts 265°
2026-05-09 17:19 46.92643 28.86328 1820 ft 189 kts 265°
2026-05-09 17:19 46.92604 28.84416 2328 ft 190 kts 267°
2026-05-09 17:20 46.92563 28.82462 2789 ft 193 kts 266°
2026-05-09 17:20 46.92521 28.80469 3208 ft 197 kts 266°
2026-05-09 17:20 46.92478 28.78458 3662 ft 199 kts 266°
2026-05-09 17:20 46.92434 28.76417 4073 ft 202 kts 266°
2026-05-09 17:21 46.92392 28.74355 4486 ft 204 kts 266°
2026-05-09 17:21 46.92355 28.72281 4912 ft 205 kts 269°
2026-05-09 17:21 46.92646 28.70223 5293 ft 208 kts 287°
2026-05-09 17:21 46.93129 28.68229 5707 ft 209 kts 288°
2026-05-09 17:22 46.93580 28.66198 6110 ft 211 kts 286°
2026-05-09 17:22 46.94014 28.64144 6520 ft 212 kts 286°
2026-05-09 17:22 46.94453 28.62082 6896 ft 213 kts 286°
2026-05-09 17:22 46.94897 28.60006 7282 ft 214 kts 286°
2026-05-09 17:23 46.95339 28.57921 7687 ft 215 kts 286°
2026-05-09 17:23 46.95781 28.55848 8068 ft 216 kts 286°
2026-05-09 17:23 46.96228 28.53745 8466 ft 217 kts 286°
2026-05-09 17:23 46.96678 28.51626 8862 ft 218 kts 287°
2026-05-09 17:25 46.98939 28.40934 10753 ft 223 kts 287°
2026-05-09 17:25 46.99397 28.38757 11105 ft 224 kts 287°
2026-05-09 17:25 46.99860 28.36569 11474 ft 225 kts 287°
2026-05-09 17:25 47.00323 28.34374 11834 ft 226 kts 287°
2026-05-09 17:26 47.00783 28.32182 12191 ft 227 kts 286°
2026-05-09 17:26 47.01250 28.29962 12535 ft 229 kts 287°
2026-05-09 17:26 47.01719 28.27731 12895 ft 230 kts 287°